EW9627 Weather Reports


time (UTC)temp
F
wind
direction
speed
knots
gust
knots
rain 1hr
in
rain 24hr
in
rain mn
in
humidity
%
barometer
mb
20260505221606 78 303 3.5 12.2 0.00 0.00 0.00 43 1013.2
20260505214529 77 318 5.2 10.4 0.00 0.00 0.00 43 1013.5
20260505213034 77 298 4.3 10.4 0.00 0.00 0.00 44 1013.6
20260505211530 76 314 5.2 11.3 0.00 0.00 0.00 45 1013.7
20260505210031 76 316 5.2 10.4 0.00 0.00 0.00 45 1013.9
20260505203032 74 309 5.2 10.4 0.00 0.00 0.00 46 1014.1
20260505200107 74 308 4.3 7.8 0.00 0.00 0.00 47 1014.3
20260505194608 73 302 3.5 9.6 0.00 0.00 0.00 47 1014.5
20260505193029 72 313 4.3 8.7 0.00 0.00 0.00 48 1014.5
20260505191531 72 303 5.2 12.2 0.00 0.00 0.00 49 1014.6
20260505190026 72 304 3.5 9.6 0.00 0.00 0.00 49 1014.7
20260505184530 71 298 4.3 12.2 0.00 0.00 0.00 51 1014.8
20260505183030 71 301 4.3 10.4 0.00 0.00 0.00 51 1014.8
20260505181531 71 283 4.3 11.3 0.00 0.00 0.00 52 1014.8
20260505180104 70 284 3.5 8.7 0.00 0.00 0.00 53 1014.8
20260505173103 69 253 2.6 9.6 0.00 0.00 0.00 55 1014.8
20260505171525 69 263 2.6 10.4 0.00 0.00 0.00 56 1014.8
20260505170035 67 246 1.7 10.4 0.00 0.00 0.00 57 1014.8
20260505164530 67 281 3.5 10.4 0.00 0.00 0.00 58 1014.8
20260505161531 65 262 3.5 9.6 0.00 0.00 0.00 60 1014.9
20260505153030 63 277 2.6 9.6 0.00 0.00 0.00 62 1014.6
20260505151531 63 240 1.7 7.8 0.00 0.00 0.00 63 1014.6
20260505150104 62 246 1.7 9.6 0.00 0.00 0.00 64 1014.5
20260505124530 60 207 0.9 7.0 0.00 0.00 0.00 68 1013.1
20260505123031 60 222 1.7 9.6 0.00 0.00 0.00 68 1013.0
20260505121532 60 222 0.9 8.7 0.00 0.00 0.00 68 1012.9
20260505114529 62 240 2.6 10.4 0.00 0.00 0.00 66 1012.8
20260505113034 62 234 2.6 11.3 0.00 0.00 0.00 65 1012.6
20260505111532 62 267 3.5 16.5 0.00 0.00 0.00 65 1012.4
20260505094530 64 262 4.3 11.3 0.00 0.00 0.00 64 1011.8
20260505093031 64 250 2.6 13.9 0.00 0.00 0.00 64 1011.8
20260505091526 64 251 2.6 8.7 0.00 0.00 0.00 64 1011.7
20260505090031 65 257 1.7 9.6 0.00 0.00 0.00 62 1011.7
20260505084528 66 255 2.6 13.9 0.00 0.00 0.00 62 1011.6
20260505083116 66 258 2.6 9.6 0.00 0.00 0.00 61 1011.6
20260505081531 66 224 0.0 3.5 0.00 0.00 0.00 59 1011.5
20260505080029 67 257 1.7 10.4 0.00 0.00 0.00 58 1011.5
20260505074530 68 250 2.6 9.6 0.00 0.00 0.00 58 1011.3
20260505073031 68 239 3.5 12.2 0.00 0.00 0.00 58 1011.3
20260505071531 68 234 2.6 9.6 0.00 0.00 0.00 57 1011.2
20260505070031 68 230 2.6 13.0 0.00 0.00 0.00 57 1011.1
20260505063103 68 231 2.6 12.2 0.00 0.00 0.00 56 1010.9
20260505061533 68 233 3.5 8.7 0.00 0.00 0.00 55 1010.8
20260505060030 69 208 0.9 6.1 0.00 0.00 0.00 53 1010.7
20260505054536 69 237 1.7 9.6 0.00 0.00 0.00 52 1010.6
20260505053032 69 227 2.6 9.6 0.00 0.00 0.00 51 1010.6
20260505051534 70 211 2.6 8.7 0.00 0.00 0.00 50 1010.6
20260505050148 70 192 0.9 7.8 0.00 0.00 0.00 48 1010.6
20260505041606 72 178 2.6 11.3 0.00 0.00 0.00 45 1009.9
20260505040046 72 180 3.5 8.7 0.00 0.00 0.00 45 1009.6
20260505033031 73 198 3.5 9.6 0.00 0.00 0.00 45 1009.3
20260505031532 73 186 4.3 12.2 0.00 0.00 0.00 45 1009.1
20260505030032 74 187 3.5 9.6 0.00 0.00 0.00 46 1008.9
20260505021530 76 209 3.5 9.6 0.00 0.00 0.00 43 1008.7
20260505020030 77 209 3.5 8.7 0.00 0.00 0.00 41 1008.7
20260505014532 79 232 3.5 9.6 0.00 0.00 0.00 40 1008.6
20260505013106 80 230 2.6 9.6 0.00 0.00 0.00 39 1008.5
20260505011646 80 244 2.6 12.2 0.00 0.00 0.00 40 1008.5
20260505004530 82 276 2.6 14.8 0.00 0.00 0.00 37 1008.5
20260505003147 82 277 2.6 9.6 0.00 0.00 0.00 36 1008.6
20260505001531 83 254 1.7 10.4 0.00 0.00 0.00 36 1008.6
20260504233031 83 253 2.6 9.6 0.00 0.00 0.00 36 1008.7
20260504231531 83 259 3.5 12.2 0.00 0.00 0.00 37 1008.8
20260504230031 83 291 4.3 12.2 0.00 0.00 0.00 37 1009.0
20260504224533 83 273 3.5 9.6 0.00 0.00 0.00 36 1009.1
20260504223031 84 288 3.5 11.3 0.00 0.00 0.00 35 1009.3